DW8790 Maspalomas ES current weather conditions

sailwx.info

Wind from 221 at 4 knots gusting 7

Air temperature 24.4° C
Dewpoint 17.2° C

Last reported at 2016-Sep-26 09:55 UTC.
Time now 2016-Sep-26 10:28 UTC

Location: N 27°46' W 015°34'.
View on Google Maps.

See reports from other nearby stations

  
Tides and Currents Weather Stations Pressure Air Temp Water Temp Dewpoint Dewpoint Depression Visibility Wind Speed Wind Dir Waves Ship Positions
date/time (UTC)wind fromknots sea level pressurealtimeterstation pressurevisibilityair tempwater tempwave heightnotes
2016-Sep-26 09:55 221 4 gusting 7 24.4
2016-Sep-26 09:50 222 5 gusting 7 24.4
2016-Sep-26 09:45 231 3 gusting 6 24.4
2016-Sep-26 09:40 217 3 gusting 6 24.4
2016-Sep-26 09:35 236 4 gusting 7 24.4
2016-Sep-26 09:30 235 4 gusting 6 24.4
2016-Sep-26 09:25 249 2 gusting 5 24.4
2016-Sep-26 09:20 271 2 gusting 6 23.9
2016-Sep-26 09:15 227 2 gusting 6 23.9
2016-Sep-26 09:10 235 2 gusting 4 23.9
2016-Sep-26 09:05 234 1 gusting 4 23.9
2016-Sep-26 08:55 296 1 gusting 2 23.9
2016-Sep-26 08:50 279 23.9
2016-Sep-26 08:45 279 23.3
2016-Sep-26 08:40 275 23.3
2016-Sep-26 08:35 23.3
2016-Sep-26 08:30 318 22.8
2016-Sep-26 08:25 357 22.8
2016-Sep-26 08:20 287 22.8
2016-Sep-26 08:15 281 0 gusting 1 22.8
2016-Sep-26 08:10 344 22.2
2016-Sep-26 08:05 353 21.7
2016-Sep-26 07:55 342 0 gusting 2 21.7
2016-Sep-26 07:50 345 0 gusting 2 21.7
2016-Sep-26 07:45 309 0 gusting 2 21.7
2016-Sep-26 07:40 005 21.1
2016-Sep-26 07:35 005 21.1
2016-Sep-26 07:30 007 21.1
2016-Sep-26 07:25 355 0 gusting 2 20.6
2016-Sep-26 07:20 335 0 gusting 2 20.6
2016-Sep-26 07:15 338 0 gusting 2 20.6
2016-Sep-26 07:10 339 0 gusting 2 20.6
2016-Sep-26 07:05 339 0 gusting 2 20.6
2016-Sep-26 06:55 012 20.0
2016-Sep-26 06:50 011 20.0
2016-Sep-26 06:45 019 20.0
2016-Sep-26 06:40 309 0 gusting 2 20.0
2016-Sep-26 06:35 023 0 gusting 2 20.0
2016-Sep-26 06:30 013 0 gusting 4 19.4
2016-Sep-26 06:25 339 0 gusting 2 20.0
2016-Sep-26 06:20 337 1 gusting 2 20.0
2016-Sep-26 06:15 327 1 gusting 2 20.0
2016-Sep-26 06:10 345 20.0
2016-Sep-26 06:05 321 0 gusting 2 20.0
2016-Sep-26 05:55 023 0 gusting 1 20.0
2016-Sep-26 05:50 352 20.0
2016-Sep-26 05:45 336 20.0
2016-Sep-26 05:40 298 0 gusting 2 20.0
2016-Sep-26 05:35 333 0 gusting 2 20.0
2016-Sep-26 05:30 339 20.0
2016-Sep-26 05:25 339 20.0
2016-Sep-26 05:20 339 20.0
2016-Sep-26 05:15 334 20.0
2016-Sep-26 05:10 333 20.0
2016-Sep-26 05:05 346 20.0
2016-Sep-26 04:55 323 0 gusting 2 20.0
2016-Sep-26 04:50 309 2 gusting 2 20.6
2016-Sep-26 04:45 323 1 gusting 2 20.0
2016-Sep-26 04:40 328 0 gusting 4 20.0
2016-Sep-26 04:35 327 1 gusting 2 20.0
2016-Sep-26 04:30 335 0 gusting 2 20.0
2016-Sep-26 04:25 310 20.0
2016-Sep-26 04:20 327 20.0
2016-Sep-26 04:15 310 20.0
2016-Sep-26 04:10 311 20.0
2016-Sep-26 04:05 325 1 gusting 2 20.0
2016-Sep-26 03:55 319 0 gusting 2 20.0
2016-Sep-26 03:50 323 1 gusting 2 20.0
2016-Sep-26 03:45 337 20.0
2016-Sep-26 03:40 312 1 gusting 2 20.0
2016-Sep-26 03:35 344 20.0
2016-Sep-26 03:30 344 20.0
2016-Sep-26 03:20 344 20.6
2016-Sep-26 03:15 344 20.6
2016-Sep-26 03:10 344 0 gusting 1 20.6
2016-Sep-26 03:05 341 0 gusting 2 20.6
2016-Sep-26 02:55 325 0 gusting 2 20.6
2016-Sep-26 02:50 343 20.6
2016-Sep-26 02:45 357 20.6
2016-Sep-26 02:40 296 0 gusting 2 20.6
2016-Sep-26 02:35 319 2 gusting 4 20.6
2016-Sep-26 02:30 338 0 gusting 2 20.6
2016-Sep-26 02:25 336 2 gusting 4 20.6
2016-Sep-26 02:20 322 2 gusting 4 21.1
2016-Sep-26 02:15 316 2 gusting 4 21.1
2016-Sep-26 02:10 263 0 gusting 2 21.1
2016-Sep-26 02:05 263 20.6
2016-Sep-26 01:55 263 20.6
2016-Sep-26 01:50 263 0 gusting 2 20.6
2016-Sep-26 01:45 263 20.6
2016-Sep-26 01:40 263 20.6
2016-Sep-26 01:35 263 20.6
2016-Sep-26 01:30 263 21.1
2016-Sep-26 01:25 263 21.1
2016-Sep-26 01:20 263 21.1
2016-Sep-26 01:15 263 21.1
2016-Sep-26 01:10 263 21.1
2016-Sep-26 01:05 263 21.1
2016-Sep-26 00:55 263 21.1
2016-Sep-26 00:50 263 21.1
2016-Sep-26 00:45 263 21.1
2016-Sep-26 00:40 263 0 gusting 2 21.1
2016-Sep-26 00:35 263 0 gusting 2 21.1
2016-Sep-26 00:30 263 0 gusting 1 21.1
2016-Sep-26 00:25 263 1 gusting 2 21.1
2016-Sep-26 00:20 263 1 gusting 2 21.1
2016-Sep-26 00:15 263 21.1
2016-Sep-26 00:10 263 21.1
2016-Sep-26 00:05 263 21.1
2016-Sep-25 23:55 263 21.1
2016-Sep-25 23:50 263 21.1
2016-Sep-25 23:45 263 21.1
2016-Sep-25 23:40 263 21.7
2016-Sep-25 23:35 263 21.7
2016-Sep-25 23:30 263 21.7
2016-Sep-25 23:25 263 21.7
2016-Sep-25 23:20 263 21.7
2016-Sep-25 23:15 263 21.7
2016-Sep-25 23:10 263 21.7
2016-Sep-25 23:05 263 21.7
2016-Sep-25 22:55 263 21.7
2016-Sep-25 22:50 263 21.7
2016-Sep-25 22:45 263 21.7
2016-Sep-25 22:40 263 21.7
2016-Sep-25 22:35 263 21.7
2016-Sep-25 22:30 263 21.7
2016-Sep-25 22:25 263 21.7
2016-Sep-25 22:20 263 21.7
2016-Sep-25 22:15 263 21.7
2016-Sep-25 22:10 263 21.7
2016-Sep-25 22:05 263 21.7
2016-Sep-25 21:55 263 21.7
2016-Sep-25 21:50 263 21.7
2016-Sep-25 21:45 263 0 gusting 2 21.7
2016-Sep-25 21:40 263 1 gusting 4 22.2
2016-Sep-25 21:35 263 1 gusting 2 22.2
2016-Sep-25 21:30 263 0 gusting 2 22.2
2016-Sep-25 21:25 263 0 gusting 1 22.2
2016-Sep-25 21:20 263 0 gusting 2 22.2
2016-Sep-25 21:15 263 1 gusting 2 22.2
2016-Sep-25 21:10 263 1 gusting 2 22.2
2016-Sep-25 21:05 263 1 gusting 2 22.2
2016-Sep-25 20:55 263 22.2
2016-Sep-25 20:50 263 22.2
2016-Sep-25 20:45 263 22.8
2016-Sep-25 20:40 263 0 gusting 2 22.8
2016-Sep-25 20:35 263 0 gusting 2 22.8
2016-Sep-25 20:30 263 1 gusting 2 22.8
2016-Sep-25 20:25 263 1 gusting 2 22.8
2016-Sep-25 20:20 232 1 gusting 4 22.8
2016-Sep-25 20:15 269 1 gusting 4 22.8
2016-Sep-25 20:10 234 4 gusting 6 22.8
2016-Sep-25 20:05 254 2 gusting 5 22.8
2016-Sep-25 19:55 254 2 gusting 4 22.8
2016-Sep-25 19:50 227 2 gusting 4 22.8
2016-Sep-25 19:45 227 0 gusting 4 22.8
2016-Sep-25 19:40 227 0 gusting 2 22.8
2016-Sep-25 19:35 227 2 gusting 4 22.8
2016-Sep-25 19:30 250 2 gusting 5 22.8
2016-Sep-25 19:25 258 2 gusting 6 22.8
2016-Sep-25 19:20 196 1 gusting 4 23.3
2016-Sep-25 19:15 233 3 gusting 5 23.3
2016-Sep-25 19:05 254 1 gusting 4 23.3
2016-Sep-25 18:55 223 3 gusting 5 23.3
2016-Sep-25 18:50 240 2 gusting 5 23.3
2016-Sep-25 18:45 229 2 gusting 6 23.3
2016-Sep-25 18:40 246 2 gusting 6 23.9
2016-Sep-25 18:35 236 4 gusting 5 23.9
2016-Sep-25 18:30 251 1 gusting 6 23.9
2016-Sep-25 18:25 208 2 gusting 5 23.9
2016-Sep-25 18:20 238 3 gusting 5 23.9
2016-Sep-25 18:15 241 3 gusting 6 23.9
2016-Sep-25 18:10 227 2 gusting 6 23.9
2016-Sep-25 18:05 242 3 gusting 6 24.4
2016-Sep-25 18:00 238 3 gusting 5 24.4
2016-Sep-25 17:55 265 2 gusting 6 25.0
2016-Sep-25 17:50 242 2 gusting 6 25.0
2016-Sep-25 17:45 253 2 gusting 6 24.4
2016-Sep-25 17:40 234 3 gusting 6 24.4
2016-Sep-25 17:35 188 1 gusting 6 24.4
2016-Sep-25 17:30 222 3 gusting 6 24.4
2016-Sep-25 17:25 240 4 gusting 6 25.0
2016-Sep-25 17:20 251 3 gusting 6 25.0
2016-Sep-25 17:15 200 2 gusting 6 25.0
2016-Sep-25 17:10 247 4 gusting 6 25.6
2016-Sep-25 17:05 239 2 gusting 7 25.6
2016-Sep-25 16:55 230 2 gusting 6 25.0
2016-Sep-25 16:50 215 2 gusting 7 24.4
2016-Sep-25 16:45 232 4 gusting 7 25.0
2016-Sep-25 16:40 208 4 gusting 10 25.0
2016-Sep-25 16:35 247 4 gusting 8 25.0
2016-Sep-25 16:30 227 4 gusting 6 25.0
2016-Sep-25 16:25 233 4 gusting 10 25.0
2016-Sep-25 16:20 220 5 gusting 6 25.0
2016-Sep-25 16:15 241 6 gusting 8 24.4
2016-Sep-25 16:10 249 4 gusting 8 25.0
2016-Sep-25 16:05 189 4 gusting 8 25.0
2016-Sep-25 15:55 225 5 gusting 7 25.0
2016-Sep-25 15:50 221 6 gusting 10 25.0
2016-Sep-25 15:45 232 6 gusting 10 25.6
2016-Sep-25 15:40 237 5 gusting 7 25.0
2016-Sep-25 15:35 243 6 gusting 10 25.0
2016-Sep-25 15:30 248 6 gusting 12 25.0
2016-Sep-25 15:20 238 6 gusting 10 25.6
2016-Sep-25 15:15 235 6 gusting 11 25.6
2016-Sep-25 15:10 250 6 gusting 11 25.0
2016-Sep-25 15:05 239 7 gusting 13 25.0
2016-Sep-25 14:55 217 6 gusting 11 25.0
2016-Sep-25 14:50 242 6 gusting 10 25.0
2016-Sep-25 14:45 232 6 gusting 11 25.6
2016-Sep-25 14:40 232 6 gusting 8 25.6
2016-Sep-25 14:35 211 5 gusting 10 25.6
2016-Sep-25 14:30 229 6 gusting 10 25.6
2016-Sep-25 14:25 258 5 gusting 10 25.6
2016-Sep-25 14:20 262 4 gusting 8 25.6
2016-Sep-25 14:15 222 4 gusting 6 25.6
2016-Sep-25 14:10 225 6 gusting 10 25.0
2016-Sep-25 14:05 214 4 gusting 11 25.0
2016-Sep-25 14:00 222 5 gusting 11 25.6
2016-Sep-25 13:55 187 5 gusting 8 25.6
2016-Sep-25 13:50 212 4 gusting 10 25.6
2016-Sep-25 13:45 216 6 gusting 10 25.6
2016-Sep-25 13:40 229 5 gusting 11 25.6
2016-Sep-25 13:35 226 6 gusting 10 25.6
2016-Sep-25 13:30 247 6 gusting 10 25.0
2016-Sep-25 13:25 226 6 gusting 10 25.6
2016-Sep-25 13:20 215 6 gusting 11 25.6
2016-Sep-25 13:15 241 5 gusting 11 26.1
2016-Sep-25 13:10 225 5 gusting 12 25.6
2016-Sep-25 13:05 226 5 gusting 12 26.1
2016-Sep-25 12:55 247 6 gusting 12 25.6
2016-Sep-25 12:50 230 6 gusting 10 25.6
2016-Sep-25 12:45 229 6 gusting 10 25.6
2016-Sep-25 12:40 219 6 gusting 10 25.6
2016-Sep-25 12:35 234 6 gusting 10 25.0
2016-Sep-25 12:30 251 6 gusting 8 25.6
2016-Sep-25 12:25 233 6 gusting 10 25.6
2016-Sep-25 12:20 230 6 gusting 8 25.6
2016-Sep-25 12:15 225 5 gusting 10 25.6
2016-Sep-25 12:10 188 4 gusting 11 25.6
2016-Sep-25 12:05 228 4 gusting 10 25.6
2016-Sep-25 11:55 237 6 gusting 10 25.6
2016-Sep-25 11:50 229 5 gusting 8 25.6
2016-Sep-25 11:45 245 5 gusting 7 25.6
2016-Sep-25 11:40 215 5 gusting 8 25.6
2016-Sep-25 11:35 232 6 gusting 10 25.0
2016-Sep-25 11:30 225 6 gusting 10 25.6
2016-Sep-25 11:25 216 5 gusting 8 25.6
2016-Sep-25 11:20 229 5 gusting 8 25.6
2016-Sep-25 11:15 217 6 gusting 10 25.0
2016-Sep-25 11:10 213 5 gusting 10 25.6
2016-Sep-25 11:05 249 5 gusting 8 25.6
2016-Sep-25 10:55 234 5 gusting 7 25.6
2016-Sep-25 10:50 272 4 gusting 8 25.6
2016-Sep-25 10:45 249 5 gusting 7 25.0
2016-Sep-25 10:40 242 5 gusting 10 25.0
2016-Sep-25 10:35 254 4 gusting 8 25.0
2016-Sep-25 10:30 236 5 gusting 7 25.0
2016-Sep-25 10:25 244 3 gusting 7 25.0
2016-Sep-25 10:20 251 2 gusting 6 25.0
2016-Sep-25 10:15 261 5 gusting 7 25.0
2016-Sep-25 10:10 257 2 gusting 6 25.0
2016-Sep-25 10:05 261 3 gusting 6 24.4
2016-Sep-25 09:55 264 3 gusting 7 24.4
2016-Sep-25 09:50 280 2 gusting 7 24.4
2016-Sep-25 09:45 250 1 gusting 4 24.4
2016-Sep-25 09:40 241 1 gusting 5 24.4
2016-Sep-25 09:35 262 1 gusting 5 23.9
2016-Sep-25 09:30 207 1 gusting 5 23.9
2016-Sep-25 09:25 207 0 gusting 5 23.9
2016-Sep-25 09:20 254 1 gusting 4 23.3
2016-Sep-25 09:15 265 1 gusting 4 23.9
2016-Sep-25 09:10 270 0 gusting 5 23.3
2016-Sep-25 09:00 282 1 gusting 2 23.3
2016-Sep-25 08:55 246 23.3
2016-Sep-25 08:50 285 22.8
2016-Sep-25 08:45 285 0 gusting 2 22.8
2016-Sep-25 08:40 276 0 gusting 1 22.8
2016-Sep-25 08:35 331 22.8
2016-Sep-25 08:30 324 0 gusting 2 22.8
2016-Sep-25 08:25 339 0 gusting 2 22.8
2016-Sep-25 08:20 341 1 gusting 2 22.8
2016-Sep-25 08:15 338 22.2
2016-Sep-25 08:10 327 0 gusting 2 22.2
2016-Sep-25 08:05 047 22.2
2016-Sep-25 07:55 047 21.7
2016-Sep-25 07:50 047 21.7
2016-Sep-25 07:45 027 21.1
2016-Sep-25 07:40 046 0 gusting 2 21.1
2016-Sep-25 07:35 074 0 gusting 2 21.1
2016-Sep-25 07:30 354 0 gusting 2 20.6
2016-Sep-25 07:25 20.6
2016-Sep-25 07:20 355 20.6
2016-Sep-25 07:15 355 20.0
2016-Sep-25 07:10 355 20.0
2016-Sep-25 07:05 355 20.0
2016-Sep-25 06:55 355 20.0
2016-Sep-25 06:50 355 20.0
2016-Sep-25 06:45 004 20.0
2016-Sep-25 06:40 005 20.0
2016-Sep-25 06:35 016 20.0
2016-Sep-25 06:30 314 20.0
2016-Sep-25 06:25 314 20.0
2016-Sep-25 06:20 314 0 gusting 1 20.0
2016-Sep-25 06:15 314 20.0
2016-Sep-25 06:10 314 0 gusting 1 20.0
2016-Sep-25 06:05 314 0 gusting 1 20.0
2016-Sep-25 05:55 314 20.0
2016-Sep-25 05:50 314 20.0
2016-Sep-25 05:45 314 20.0
2016-Sep-25 05:40 314 20.0
2016-Sep-25 05:35 314 20.0
2016-Sep-25 05:30 314 20.0
2016-Sep-25 05:25 314 20.0
2016-Sep-25 05:20 314 20.6
2016-Sep-25 05:15 314 20.6
2016-Sep-25 05:10 314 0 gusting 2 20.6
2016-Sep-25 05:05 314 0 gusting 2 20.6
2016-Sep-25 04:55 314 0 gusting 2 20.6
2016-Sep-25 04:50 314 0 gusting 2 20.6
2016-Sep-25 04:45 314 0 gusting 2 20.6
2016-Sep-25 04:40 314 0 gusting 2 20.6
2016-Sep-25 04:35 314 0 gusting 2 20.6
2016-Sep-25 04:30 314 20.6
2016-Sep-25 04:25 314 20.6
2016-Sep-25 04:20 314 0 gusting 2 20.6
2016-Sep-25 04:15 314 0 gusting 2 20.6
2016-Sep-25 04:10 314 0 gusting 2 20.6
2016-Sep-25 04:05 314 0 gusting 1 20.6
2016-Sep-25 03:55 314 20.6
2016-Sep-25 03:50 314 20.6
2016-Sep-25 03:45 314 20.6
2016-Sep-25 03:40 314 20.6
2016-Sep-25 03:35 314 20.6
2016-Sep-25 03:30 314 1 gusting 2 20.6
2016-Sep-25 03:20 295 1 gusting 2 20.6
2016-Sep-25 03:15 295 0 gusting 2 20.6
2016-Sep-25 03:10 295 0 gusting 2 20.6
2016-Sep-25 03:05 295 0 gusting 1 20.6
2016-Sep-25 02:55 295 20.6
2016-Sep-25 02:50 295 20.6
2016-Sep-25 02:45 295 20.6
2016-Sep-25 02:40 295 20.6
2016-Sep-25 02:35 295 20.6
2016-Sep-25 02:30 295 20.6
2016-Sep-25 02:25 295 20.6
2016-Sep-25 02:20 295 20.6
2016-Sep-25 02:15 295 20.6
2016-Sep-25 02:10 295 20.6
2016-Sep-25 02:05 295 21.1
2016-Sep-25 01:55 295 21.1
2016-Sep-25 01:50 295 21.1
2016-Sep-25 01:45 295 21.1
2016-Sep-25 01:40 295 21.7
2016-Sep-25 01:35 295 21.7
2016-Sep-25 01:30 295 21.7
2016-Sep-25 01:25 295 21.1
2016-Sep-25 01:20 295 21.1
2016-Sep-25 01:15 295 21.1
2016-Sep-25 01:10 295 21.1
2016-Sep-25 01:05 295 21.1
2016-Sep-25 00:55 295 21.1
2016-Sep-25 00:50 295 21.7
2016-Sep-25 00:45 295 21.7
2016-Sep-25 00:40 295 21.7
2016-Sep-25 00:35 295 21.7
2016-Sep-25 00:30 295 21.7
2016-Sep-25 00:25 295 21.7
2016-Sep-25 00:20 295 21.7
2016-Sep-25 00:15 295 21.7
2016-Sep-25 00:10 295 2 gusting 4 21.7
2016-Sep-25 00:05 290 1 gusting 2 21.7
2016-Sep-24 23:55 290 0 gusting 2 21.7
2016-Sep-24 23:50 284 1 gusting 2 21.7
2016-Sep-24 23:45 314 1 gusting 2 21.7
2016-Sep-24 23:40 303 0 gusting 4 21.7
2016-Sep-24 23:35 313 2 gusting 5 21.7
2016-Sep-24 23:30 295 0 gusting 2 21.7
2016-Sep-24 23:25 294 1 gusting 2 21.7
2016-Sep-24 23:20 294 1 gusting 2 21.7
2016-Sep-24 23:15 294 21.7
2016-Sep-24 23:10 294 0 gusting 1 21.7
2016-Sep-24 23:05 294 21.7
2016-Sep-24 22:55 294 0 gusting 2 21.7
2016-Sep-24 22:50 294 0 gusting 2 21.7
2016-Sep-24 22:45 294 0 gusting 2 21.7
2016-Sep-24 22:40 294 1 gusting 2 21.7
2016-Sep-24 22:35 294 0 gusting 2 21.7
2016-Sep-24 22:30 294 0 gusting 2 21.7
2016-Sep-24 22:25 294 0 gusting 2 21.7
2016-Sep-24 22:20 285 2 gusting 2 21.7
2016-Sep-24 22:15 275 21.7
2016-Sep-24 22:10 272 0 gusting 2 21.7
2016-Sep-24 22:05 284 1 gusting 5 21.7
2016-Sep-24 21:55 255 22.2
2016-Sep-24 21:45 255 0 gusting 2 22.2
2016-Sep-24 21:40 255 0 gusting 2 22.2
2016-Sep-24 21:35 255 0 gusting 2 22.2
2016-Sep-24 21:30 255 22.2
2016-Sep-24 21:25 255 22.2
2016-Sep-24 21:20 255 22.2
2016-Sep-24 21:15 255 22.2
2016-Sep-24 21:10 255 22.2
2016-Sep-24 21:05 255 22.2
2016-Sep-24 20:55 255 22.2
2016-Sep-24 20:50 255 22.2
2016-Sep-24 20:45 255 22.2
2016-Sep-24 20:40 255 22.2
2016-Sep-24 20:35 255 1 gusting 2 22.2
2016-Sep-24 20:30 269 2 gusting 4 22.2
2016-Sep-24 20:25 264 1 gusting 5 22.8
2016-Sep-24 20:20 238 1 gusting 4 22.8
2016-Sep-24 20:15 247 1 gusting 2 22.8
2016-Sep-24 20:10 232 1 gusting 4 22.8
2016-Sep-24 20:05 242 2 gusting 4 22.8
2016-Sep-24 19:55 240 3 gusting 5 22.8
2016-Sep-24 19:50 242 3 gusting 5 22.8
2016-Sep-24 19:45 260 1 gusting 6 22.8
2016-Sep-24 19:40 240 2 gusting 5 22.8
2016-Sep-24 19:35 239 2 gusting 4 23.3
2016-Sep-24 19:30 241 2 gusting 4 23.3
2016-Sep-24 19:25 239 3 gusting 5 23.3
2016-Sep-24 19:20 229 2 gusting 5 23.3
2016-Sep-24 19:15 229 2 gusting 5 23.3
2016-Sep-24 19:10 223 2 gusting 5 23.3
2016-Sep-24 19:05 231 1 gusting 5 23.3
2016-Sep-24 18:55 228 3 gusting 5 23.9
2016-Sep-24 18:50 213 2 gusting 6 23.9
2016-Sep-24 18:45 223 1 gusting 4 24.4
2016-Sep-24 18:40 218 4 gusting 5 24.4
2016-Sep-24 18:35 241 3 gusting 6 24.4
2016-Sep-24 18:30 224 2 gusting 6 24.4
2016-Sep-24 18:25 232 4 gusting 6 25.0
2016-Sep-24 18:20 245 4 gusting 6 25.0
2016-Sep-24 18:15 242 3 gusting 6 25.0
2016-Sep-24 18:10 236 3 gusting 6 25.0
2016-Sep-24 18:05 246 3 gusting 7 25.0
2016-Sep-24 17:55 250 2 gusting 6 25.6
2016-Sep-24 17:50 237 2 gusting 5 25.6
2016-Sep-24 17:45 220 3 gusting 6 25.6
2016-Sep-24 17:40 241 2 gusting 5 25.6
2016-Sep-24 17:35 243 4 gusting 6 25.6
2016-Sep-24 17:30 252 3 gusting 6 25.6
2016-Sep-24 17:25 242 3 gusting 6 25.6
2016-Sep-24 17:20 235 5 gusting 8 25.6
2016-Sep-24 17:15 242 4 gusting 8 25.6
2016-Sep-24 17:10 242 4 gusting 7 25.6
2016-Sep-24 17:05 254 5 gusting 10 25.6
2016-Sep-24 16:55 239 5 gusting 7 25.6
2016-Sep-24 16:50 208 4 gusting 8 25.6
2016-Sep-24 16:45 225 3 gusting 6 25.6
2016-Sep-24 16:40 196 4 gusting 10 25.6
2016-Sep-24 16:35 244 4 gusting 6 25.6
2016-Sep-24 16:30 225 5 gusting 7 25.6
2016-Sep-24 16:25 227 6 gusting 10 25.6
2016-Sep-24 16:20 244 5 gusting 10 25.6
2016-Sep-24 16:15 233 5 gusting 8 25.6
2016-Sep-24 16:10 215 4 gusting 8 25.6
2016-Sep-24 16:05 222 5 gusting 8 25.6
2016-Sep-24 16:00 234 5 gusting 7 25.6
2016-Sep-24 15:55 228 6 gusting 8 25.6
2016-Sep-24 15:50 229 4 gusting 7 25.6
2016-Sep-24 15:45 235 4 gusting 7 25.6
2016-Sep-24 15:40 223 6 gusting 8 25.6
2016-Sep-24 15:35 233 5 gusting 10 25.6
2016-Sep-24 15:30 209 5 gusting 10 25.6
2016-Sep-24 15:20 250 6 gusting 10 25.6
2016-Sep-24 15:15 227 5 gusting 10 25.6
2016-Sep-24 15:10 233 5 gusting 10 26.1
2016-Sep-24 15:05 228 6 gusting 11 25.6
2016-Sep-24 15:00 214 7 gusting 12 25.6
2016-Sep-24 14:55 231 9 gusting 12 26.1
2016-Sep-24 14:50 220 6 gusting 11 26.1
2016-Sep-24 14:45 218 6 gusting 11 26.1
2016-Sep-24 14:40 213 5 gusting 10 26.7
2016-Sep-24 14:35 194 5 gusting 10 26.1
2016-Sep-24 14:30 211 5 gusting 10 26.1
2016-Sep-24 14:25 217 5 gusting 10 26.1
2016-Sep-24 14:20 224 6 gusting 10 26.1
2016-Sep-24 14:15 213 5 gusting 8 26.1
2016-Sep-24 14:10 219 4 gusting 10 26.1
2016-Sep-24 14:05 222 3 gusting 7 25.6
2016-Sep-24 13:55 228 5 gusting 8 25.6
2016-Sep-24 13:50 250 4 gusting 8 25.0
2016-Sep-24 13:45 248 6 gusting 10 25.6
2016-Sep-24 13:40 242 4 gusting 10 25.6
2016-Sep-24 13:35 260 4 gusting 8 25.6
2016-Sep-24 13:30 270 2 gusting 6 25.6
2016-Sep-24 13:25 260 3 gusting 6 25.6
2016-Sep-24 13:20 185 4 gusting 10 25.6
2016-Sep-24 13:15 249 4 gusting 8 25.6
2016-Sep-24 13:10 233 5 gusting 10 25.0
2016-Sep-24 13:05 216 4 gusting 10 25.0
2016-Sep-24 12:55 231 4 gusting 7 25.0
2016-Sep-24 12:50 246 5 gusting 10 25.0
2016-Sep-24 12:45 236 4 gusting 8 25.0
2016-Sep-24 12:40 252 4 gusting 10 25.0
2016-Sep-24 12:35 238 4 gusting 8 25.6
2016-Sep-24 12:30 202 4 gusting 6 25.0
2016-Sep-24 12:25 237 4 gusting 7 25.0
2016-Sep-24 12:20 233 4 gusting 7 25.0
2016-Sep-24 12:15 219 4 gusting 10 24.4
2016-Sep-24 12:10 247 4 gusting 7 24.4
2016-Sep-24 12:05 217 5 gusting 7 25.0
2016-Sep-24 11:55 201 4 gusting 6 25.0
2016-Sep-24 11:50 209 4 gusting 10 24.4
2016-Sep-24 11:45 250 5 gusting 10 24.4
2016-Sep-24 11:40 234 4 gusting 7 24.4
2016-Sep-24 11:35 220 6 gusting 10 24.4
2016-Sep-24 11:30 224 6 gusting 10 24.4
2016-Sep-24 11:25 221 6 gusting 10 24.4
2016-Sep-24 11:20 201 6 gusting 11 24.4
2016-Sep-24 11:15 233 6 gusting 12 24.4
2016-Sep-24 11:10 221 5 gusting 12 24.4
2016-Sep-24 11:05 237 6 gusting 13 24.4
2016-Sep-24 10:55 239 4 gusting 10 24.4
2016-Sep-24 10:50 214 6 gusting 11 23.9
2016-Sep-24 10:45 228 6 gusting 10 23.9
2016-Sep-24 10:40 231 6 gusting 10 23.9
2016-Sep-24 10:35 239 5 gusting 10 24.4
2016-Sep-24 10:30 219 4 gusting 8 24.4
2016-Sep-24 10:25 221 2 gusting 6 24.4
2016-Sep-24 10:20 201 2 gusting 6 24.4